Regional Weather Roundup
Issued by NWS Charleston, SC

Current Version | Previous Version | Graphics & Text | Print | Product List | Glossary On
Versions: 1 2 3 4 5 6 7 8 9 10 11 12 13 14 15 16 17 18 19 20 21 22 23 24 25 26 27 28 29 30 31 32 33 34 35 36 37 38 39 40 41 42 43 44 45 46 47 48 49 50
860 ASUS42 KCHS 170512 RWRCHS REGIONAL WEATHER ROUNDUP NATIONAL WEATHER SERVICE CHARLESTON SC 1200 AM EST TUE JAN 17 2017 NOTE: "FAIR" INDICATES FEW OR NO CLOUDS BELOW 12,000 FEET WITH NO SIGNIFICANT WEATHER AND/OR OBSTRUCTIONS TO VISIBILITY. NOT ALL STATIONS ARE QUALITY CONTROLLED. USE DATA WITH CAUTION... ESPECIALLY DEWPOINT OBSERVATIONS. SCZ027-030-031-034>040-042>050-170600- ...SOUTHEAST SOUTH CAROLINA... CITY SKY/WX TMP DP RH WIND PRES REMARKS N CHARLESTON PTCLDY 53 51 93 CALM 30.29F WATERFRONT PRK N/A 56 54 93 VRB3 30.29F MOUNT PLEASANT FAIR 54 52 94 CALM 30.29F JOHNS ISLAND FAIR 55 54 94 NE6 30.29F PINOPOLIS N/A 54 54 100 CALM 30.22S MONCKS CORNER MOCLDY 50 50 100 CALM 30.29F FOG SUMMERVILLE FAIR N/A N/A N/A CALM 30.31F HAZE BEAUFORT MCAS PTCLDY 56 54 93 CALM 30.29F BEAUFORT ARPT FAIR 55 54 94 E5 30.29F HILTON HEAD IS CLOUDY 55 55 100 N5 30.29F WALTERBORO CLOUDY 61 N/A N/A CALM 30.31S FOG ALLENDALE FOG 61 59 94 CALM 30.28F VSB 1/2 ...SOUTHERN MIDLANDS AND PEE DEE... CITY SKY/WX TMP DP RH WIND PRES REMARKS GEORGETOWN FAIR 52 50 93 CALM 30.30F KINGSTREE CLOUDY 52 50 93 CALM 30.30F ORANGEBURG FOG 56 56 100 SE5 30.30F VSB 3/4 BARNWELL FOG 59 59 100 CALM 30.29F VSB 1/4 AIKEN FOG 54 54 100 E5 30.32F VSB 1/2 MANNING CLOUDY 52 52 100 CALM 30.30F FOG COLUMBIA FOG 54 53 97 CALM 30.30S VSB 1/2 SUMTER FOG 52 52 98 NE3 30.28F VSB 1/2 FLORENCE CLOUDY 53 51 93 NE3 30.31F MYRTLE BEACH CLOUDY 55 48 76 NE3 30.32S N MYRTLE BEACH MOCLDY 53 50 89 N3 30.30F $$ GAZ063-065-086>088-099>101-113>116-118-119-134>141-150-170600- ...SOUTHEAST GEORGIA... CITY SKY/WX TMP DP RH WIND PRES REMARKS SAVANNAH ARPT CLOUDY 58 56 93 E7 30.30S FOG HUNTER AAF FOG 57 57 100 CALM 30.27F VSB 3/4 FORT STEWART FOG 57 57 100 CALM 30.27S VSB 1 STATESBORO CLOUDY 62 62 100 SE5 30.30S SYLVANIA CLOUDY N/A N/A N/A S3 30.30S CLAXTON CLOUDY N/A N/A N/A CALM 30.30R ...CSRA...CENTRAL AND FAR SOUTHEAST GEORGIA... CITY SKY/WX TMP DP RH WIND PRES REMARKS THOMSON CLOUDY 60 60 100 SE5 30.31F AUGUSTA-BUSH CLOUDY 59 56 89 E3 30.28F FOG AUGUSTA-DANIEL CLOUDY 57 54 89 SE6 30.28F FOG SWAINSBORO FAIR 61 59 94 SE8 30.28F VIDALIA CLOUDY 59 59 100 E5 30.28F EASTMAN FAIR 55 54 97 CALM 30.27F HAZLEHURST FAIR 62 61 97 SE6 30.25F ALMA CLOUDY 60 59 96 E3 30.27S WAYCROSS CLOUDY 62 62 100 SE5 30.28S FOG JESUP FOG 59 57 94 CALM 30.29S VSB 1/2 BAXLEY MOCLDY 59 59 100 SE3 30.27S BRUNSWICK FOG 61 61 100 CALM 30.29F VSB 1/4 SAINT SIMONS FOG 60 60 100 CALM 30.27F VSB 1/4 $$ SCZ027-028-034-036>038-045-046-048>050-GAZ119-141-170600- ...LAKE AND SUPPLEMENTAL COASTAL OBSERVATIONS... STATION/POSITION TIME TEMP WIND PRES WAVE SWELL AIR SEA DIR/SP/G HT/PER HT/PER/DIR (UTC) (F) (DEG/KT/KT) (MB) (FT/S) (FT/S/D) WINYAH BAY 0345 54 60/ 7 1026.0 LAKE MURRAY 0420 53 80/ 1/ 4 1025.7S ACE BASIN NERRS 0345 57 50/ 2 1026.0 FORT PULASKI 0448 50/ 5/ 6 N/A SAPELO ISLAND 0400 60 360/ 4 1026.0 $$ ANZ835-935-AMZ111-154-330-350-352-354-370-450-454-472-170600- ...C-MAN AND BUOY OBSERVATIONS... STATION/POSITION TIME TEMP WIND PRES WAVE SWELL AIR SEA DIR/SP/G HT/PER HT/PER/DIR (UTC) (F) (DEG/KT/KT) (MB) (FT/S) (FT/S/D) BUOY 41004 0350 69 70 60/ 10/ 12 1025.2 4/ 6 3/ 50/ 6 BUOY 41008 0350 61 59 90/ 6/ 6 1025.2 3/ 5 3/ 70/ 5 FOLLY BEACH CMAN 0400 55 60/ 9/ 10 1026.5F CAPERS NEARSHORE 0408 54 54 60/ 8/ 12 1025.8F FRIPP NEARSHORE 0408 57 56 70/ 10/ 12 1025.6F STATION/POSITION TIME TEMP WIND PRES WAVE SWELL AIR SEA DIR/SP/G HT/PER HT/PER/DIR (UTC) (F) (DEG/KT/KT) (MB) (FT/S) (FT/S/D) 5E ST. MARYS GA 0430 61 N/A 2/11 2/100/11 FRYING PAN BUOY 0450 66 70 60/ 10/ 12 1025.5F 3/ 8 3/110/ 8 BUOY 41025 0450 56 73 10/ 10/ 12 1025.9F 3/ 8 3/110/ 8 CAPE LOOKOUT NC 0400 49 10/ 6/ 7 1026.4F BUOY 41002 0450 70 71 170/ 14/ 16 1025.7F 3/ 8 3/ 20/ 8 BUOY 41010 NOT AVBL ST AUGUSTINE FL 0500 66 64 CALM / 1 1025.8F $$

USA.gov is the U.S. government's official web portal to all federal, state and local government web resources and services.